Location: Fredericksburg
(30.2750°N, 98.8720°W)
Time: 07:59:04
(UTC-05:00)

Amateur Radio Satellites - All Passes

Search period start: 30 October 2014 07:29
Search period end: 31 October 2014 07:29
Location: Fredericksburg, 30.2750°N, 98.8720°W

Satellite Date Start Highest point End Downlink Frequencies (MHz)
Time Altitude Azimuth
PANSAT 30 Oct 07:51:59 07:55:47 63° 185° (S) 07:59:34 not established
Hamsat 30 Oct 08:14:04 08:17:08 20° 289° (WNW) 08:20:13 145.90 MHz
JAS-2 30 Oct 08:26:07 08:32:10 25° 295° (WNW) 08:38:05 435.800 - 435.900 CW/SSB, 435.910 FM
SO-67 30 Oct 08:27:30 08:30:55 64° 100° (E) 08:34:19 435.3500 MHz FM
AO-40 30 Oct 08:36:02 09:04:51 25° 211° (SSW) 09:11:56 Beacon 2401.320
HO-68 30 Oct 09:00:52 09:03:15 12° 93° (E) 09:05:37 435.675 MHz FM
STRAND 1 30 Oct 09:03:01 09:05:49 15° 266° (W) 09:08:38 ?
RS-15 30 Oct 09:16:40 09:26:39 38° 253° (WSW) 09:37:04 29.354 - 29.394 USB, Beacon 29.352 USB
MaSat-1 30 Oct 09:31:48 09:34:03 37° 251° (WSW) 09:36:13 437.345 MHz
PANSAT 30 Oct 09:32:16 09:35:43 32° 197° (SSW) 09:39:09 not established
UKube-1 30 Oct 10:15:15 10:17:37 14° 95° (E) 10:19:58 145.840 MHz, 145.915 MHz
ISS 30 Oct 10:23:57 10:27:11 57° 132° (SE) 10:30:27 145.800 FM
SO-50 30 Oct 10:44:19 10:46:11 12° 107° (ESE) 10:48:04 436.795 FM
HO-68 30 Oct 10:44:19 10:51:32 87° 286° (WNW) 10:58:43 435.675 MHz FM
Oscar 11 30 Oct 10:49:51 10:53:52 38° 99° (E) 10:57:52 145.825 FM, Beacon 2401.500 USB
FUNcube-1 30 Oct 11:04:05 11:07:11 20° 96° (E) 11:10:16 145.950 - 145.970 MHz USB
KITSAT 1 30 Oct 11:15:47 11:23:38 59° 111° (ESE) 11:31:31 435.175 FM
UKube-1 30 Oct 11:49:52 11:53:50 35° 287° (WNW) 11:57:47 145.840 MHz, 145.915 MHz
ZACube-1 30 Oct 11:56:14 12:00:24 80° 283° (WNW) 12:04:32 437.345 MHz
ISS 30 Oct 12:02:43 12:04:07 12° 326° (NW) 12:05:33 145.800 FM
SO-50 30 Oct 12:21:57 12:26:13 46° 301° (WNW) 12:30:38 436.795 FM
Sapphire 30 Oct 12:25:55 12:30:39 30° 59° (ENE) 12:35:21 437.095 MHz 1200 baud AX-25 AFSK
Oscar 11 30 Oct 12:27:34 12:29:39 14° 291° (WNW) 12:31:45 145.825 FM, Beacon 2401.500 USB
HO-68 30 Oct 12:35:23 12:38:11 13° 301° (WNW) 12:41:00 435.675 MHz FM
FUNcube-1 30 Oct 12:40:13 12:43:27 22° 289° (WNW) 12:46:40 145.950 - 145.970 MHz USB
PCSat 30 Oct 12:47:20 12:52:37 52° 63° (ENE) 12:57:51 145.825 MHz
Oscar 16 30 Oct 13:03:49 13:03:57 10° 64° (ENE) 13:04:05 437.025 USB, Beacon 2401.1428
UOSAT-12 30 Oct 13:11:55 13:16:15 45° 113° (ESE) 13:20:42 437.025 FM, 437.400 FM
KITSAT 1 30 Oct 13:12:51 13:19:23 27° 307° (NW) 13:25:58 435.175 FM
JAS-1B 30 Oct 13:15:36 13:18:33 14° 65° (ENE) 13:21:28 435.800 - 435.900 CW/SSB
AO-Echo 30 Oct 13:45:30 13:47:54 14° 66° (ENE) 13:50:20 ?
Oscar 19 30 Oct 13:51:14 13:55:51 34° 72° (ENE) 14:00:27 437.125 CW, 437.150 USB
Sapphire 30 Oct 14:09:22 14:13:55 28° 253° (WSW) 14:18:26 437.095 MHz 1200 baud AX-25 AFSK
AO-27 30 Oct 14:24:55 14:29:22 30° 70° (ENE) 14:33:50 436.795 MHz FM
PCSat 30 Oct 14:32:29 14:35:30 15° 256° (WSW) 14:38:31 145.825 MHz
Gurwin Techsat 1B 30 Oct 14:35:16 14:38:49 19° 68° (ENE) 14:42:23 435.225 FM
Oscar 16 30 Oct 14:37:28 14:42:37 74° 258° (WSW) 14:47:46 437.025 USB, Beacon 2401.1428
TMSAT-1 30 Oct 14:42:55 14:45:59 16° 67° (ENE) 14:49:02 436.925 FM
UOSAT-12 30 Oct 14:53:42 14:56:36 16° 308° (NW) 14:59:32 437.025 FM, 437.400 FM
JAS-1B 30 Oct 15:02:58 15:08:47 53° 259° (WSW) 15:14:19 435.800 - 435.900 CW/SSB
Uribyol 2 30 Oct 15:08:20 15:13:33 89° 74° (ENE) 15:18:48 436.500 FM
ITAMSAT 1 30 Oct 15:16:02 15:21:15 82° 257° (WSW) 15:26:29 435.822 SSB
AO-Echo 30 Oct 15:21:20 15:26:06 52° 260° (W) 15:31:03 ?
Oscar 19 30 Oct 15:31:24 15:35:10 21° 264° (W) 15:38:57 437.125 CW, 437.150 USB
Saudisat 1A 30 Oct 15:39:57 15:43:51 29° 57° (ENE) 15:47:42 436.775 MHz
AO-7 30 Oct 15:56:23 16:03:11 30° 63° (ENE) 16:09:59 29.400 - 29.500 MHz
AO-27 30 Oct 16:04:33 16:08:46 25° 263° (W) 16:13:02 436.795 MHz FM
Gurwin Techsat 1B 30 Oct 16:13:24 16:18:24 42° 261° (W) 16:23:25 435.225 FM
TMSAT-1 30 Oct 16:20:18 16:25:25 50° 260° (W) 16:30:34 436.925 FM
JAS-2 30 Oct 16:50:10 16:52:14 12° 59° (ENE) 16:54:22 435.800 - 435.900 CW/SSB, 435.910 FM
Uosat F 30 Oct 17:11:39 17:16:37 68° 75° (ENE) 17:21:38 435.120 FM
Saudisat 1A 30 Oct 17:19:59 17:23:10 20° 250° (WSW) 17:26:21 436.775 MHz
OPAL 30 Oct 17:45:21 17:47:38 13° 96° (E) 17:49:55 ?
AO-7 30 Oct 17:47:34 17:55:30 51° 258° (WSW) 18:03:30 29.400 - 29.500 MHz
JAS-2 30 Oct 18:30:04 18:36:02 89° 257° (WSW) 18:42:53 435.800 - 435.900 CW/SSB, 435.910 FM
ISS 30 Oct 18:33:34 18:36:50 52° 44° (NE) 18:40:06 145.800 FM
Hamsat 30 Oct 19:00:28 19:04:35 57° 260° (W) 19:08:42 145.90 MHz
AO-40 30 Oct 19:02:07 02:23:36 58° 179° (S) 04:03:42 Beacon 2401.320
KITSAT 1 30 Oct 19:19:39 19:21:16 11° 41° (NE) 19:22:52 435.175 FM
OPAL 30 Oct 19:21:56 19:26:42 50° 288° (WNW) 19:31:27 ?
STRAND 1 30 Oct 19:38:32 19:42:48 26° 97° (E) 19:47:02 ?
SO-67 30 Oct 20:27:11 20:30:20 35° 262° (W) 20:33:31 435.3500 MHz FM
Oscar 10/S400 30 Oct 20:33:18 21:06:50 71° 200° (SSW) 07:16:28 145.825 - 145.975 CW/USB, Beacon 145.810 USB
SO-50 30 Oct 20:58:54 21:03:18 33° 57° (ENE) 21:07:42 436.795 FM
HO-68 30 Oct 21:06:43 21:13:14 40° 68° (ENE) 21:19:46 435.675 MHz FM
KITSAT 1 30 Oct 21:10:27 21:18:24 59° 61° (ENE) 21:26:18 435.175 FM
STRAND 1 30 Oct 21:17:33 21:21:51 28° 290° (WNW) 21:26:07 ?
RS-15 30 Oct 21:19:44 21:30:31 60° 111° (ESE) 21:41:06 29.354 - 29.394 USB, Beacon 29.352 USB
Oscar 11 30 Oct 21:40:39 21:43:10 15° 69° (ENE) 21:45:41 145.825 FM, Beacon 2401.500 USB
UKube-1 30 Oct 22:38:57 22:43:18 88° 259° (WSW) 22:47:40 145.840 MHz, 145.915 MHz
SO-50 30 Oct 22:39:56 22:43:38 22° 250° (WSW) 22:47:19 436.795 FM
ZACube-1 30 Oct 22:46:41 22:50:56 39° 74° (ENE) 22:55:07 437.345 MHz
HO-68 30 Oct 22:54:42 23:00:51 31° 262° (W) 23:07:04 435.675 MHz FM
MaSat-1 30 Oct 23:00:24 23:04:25 58° 292° (WNW) 23:08:05 437.345 MHz
KITSAT 1 30 Oct 23:07:09 23:13:10 24° 256° (WSW) 23:19:10 435.175 FM
Oscar 11 30 Oct 23:15:07 23:19:01 33° 262° (W) 23:22:56 145.825 FM, Beacon 2401.500 USB
UOSAT-12 30 Oct 23:26:41 23:31:23 83° 244° (WSW) 23:35:58 437.025 FM, 437.400 FM
FUNcube-1 30 Oct 23:29:25 23:33:56 61° 259° (W) 23:38:23 145.950 - 145.970 MHz USB
RS-15 30 Oct 23:33:41 23:43:15 33° 310° (NW) 23:52:50 29.354 - 29.394 USB, Beacon 29.352 USB
ZACube-1 31 Oct 00:25:00 00:27:22 14° 266° (W) 00:29:43 437.345 MHz
PCSat 31 Oct 01:42:33 01:45:30 15° 104° (ESE) 01:48:28 145.825 MHz
Oscar 19 31 Oct 02:09:18 02:12:57 20° 96° (E) 02:16:36 437.125 CW, 437.150 USB
AO-27 31 Oct 02:44:37 02:47:55 17° 95° (E) 02:51:12 436.795 MHz FM
JAS-1B 31 Oct 02:50:20 02:57:45 59° 102° (ESE) 03:06:31 435.800 - 435.900 CW/SSB
Oscar 16 31 Oct 02:55:04 03:00:09 64° 102° (ESE) 03:05:13 437.025 USB, Beacon 2401.1428
Gurwin Techsat 1B 31 Oct 02:58:56 03:00:13 11° 93° (E) 03:01:30 435.225 FM
Sapphire 31 Oct 03:01:13 03:06:36 88° 114° (ESE) 03:12:03 437.095 MHz 1200 baud AX-25 AFSK
PCSat 31 Oct 03:23:08 03:28:23 52° 297° (WNW) 03:33:40 145.825 MHz
Uribyol 2 31 Oct 03:27:09 03:32:13 52° 101° (E) 03:37:13 436.500 FM
AO-Echo 31 Oct 03:34:08 03:39:29 82° 102° (ESE) 03:44:42 ?
ITAMSAT 1 31 Oct 03:34:56 03:40:04 59° 101° (E) 03:45:10 435.822 SSB
Oscar 19 31 Oct 03:47:40 03:52:18 36° 288° (WNW) 03:56:56 437.125 CW, 437.150 USB
PANSAT 31 Oct 04:07:00 04:10:17 27° 161° (SSE) 04:13:34 not established
AO-7 31 Oct 04:08:08 04:09:56 11° 93° (E) 04:11:44 29.400 - 29.500 MHz
AO-27 31 Oct 04:22:38 04:27:32 43° 287° (WNW) 04:32:25 436.795 MHz FM
Gurwin Techsat 1B 31 Oct 04:35:14 04:40:30 65° 285° (WNW) 04:45:44 435.225 FM
Oscar 16 31 Oct 04:37:16 04:38:53 11° 295° (WNW) 04:40:30 437.025 USB, Beacon 2401.1428
TMSAT-1 31 Oct 04:41:52 04:47:10 78° 284° (WNW) 04:52:27 436.925 FM
JAS-1B 31 Oct 04:42:14 04:47:57 25° 292° (WNW) 04:54:25 435.800 - 435.900 CW/SSB
Sapphire 31 Oct 04:49:36 04:50:41 11° 309° (NW) 04:51:46 437.095 MHz 1200 baud AX-25 AFSK
OPAL 31 Oct 04:55:06 04:57:40 14° 65° (ENE) 05:00:14 ?
Uribyol 2 31 Oct 05:08:26 05:11:10 15° 294° (WNW) 05:13:55 436.500 FM
ITAMSAT 1 31 Oct 05:16:41 05:18:59 13° 295° (WNW) 05:21:16 435.822 SSB
Uosat F 31 Oct 05:25:34 05:30:07 33° 99° (E) 05:34:37 435.120 FM
Saudisat 1A 31 Oct 05:40:55 05:44:41 29° 112° (ESE) 05:48:29 436.775 MHz
PANSAT 31 Oct 05:46:23 05:50:10 59° 173° (S) 05:53:57 not established
JAS-2 31 Oct 05:46:50 05:52:31 22° 92° (E) 05:57:57 435.800 - 435.900 CW/SSB, 435.910 FM
AO-7 31 Oct 05:55:10 06:03:32 81° 106° (ESE) 06:11:53 29.400 - 29.500 MHz
RS-15 31 Oct 06:28:02 06:38:25 40° 53° (NE) 06:49:08 29.354 - 29.394 USB, Beacon 29.352 USB
OPAL 31 Oct 06:31:03 06:36:03 54° 257° (WSW) 06:41:02 ?
STRAND 1 31 Oct 06:49:21 06:53:10 22° 69° (ENE) 06:57:01 ?
Hamsat 31 Oct 06:51:47 06:55:42 36° 98° (E) 06:59:38 145.90 MHz
Uosat F 31 Oct 07:04:54 07:08:37 21° 291° (WNW) 07:12:19 435.120 FM
Saudisat 1A 31 Oct 07:20:55 07:24:12 21° 305° (NW) 07:27:31 436.775 MHz
